Location: ??? ?????
(30.6482°N, 60.5850°E)
Time: 07:54:25
(UTC+00:00)

Cosmos 1300 - Pass Details

Date: 09 April 2020
Orbit: 511 x 515 km, 82.5° (Epoch: 25 May)

Event Time Altitude Azimuth Distance (km) Brightness Sun altitude
Exits shadow 15:33:08 24° 73° (ENE) 1,083 3.9 -15.6°
Drops below altitude 10° 15:35:40 10° 34° (NNE) 1,742 5.2 -16.2°
Sets 15:38:02 0° 21° (NNE) 2,633 6.3 -16.6°
